STARLINK-4516 (53549 NORAD) Tracking and Keplerian Element Data

This shows tracking and keplerian element data for the satellite.

Feedback or suggestion? Click here.




ElementValue
Catalog53549
NameSTARLINK-4516
Epoch Orbit1441
Epoch Day324.8441084
Epoch Year2022
RAAN72.8752
Inclination53.2155
Eccentricity0.0001537
Argument of Perigee71.5743
Mean Anonmoly288.5693
Mean Motion15.08844322
Decay Rate1.304E-05
L11 53549U 22101Y 22324.84410840 .00001304 00000+0 10000-3 0 9995
L22 53549 53.2155 72.8752 0001537 71.5743 288.5693 15.08844322 14411



Live tracking and technical data element details for STARLINK-4516 (NORAD 53549). STARLINK-4516 can be tracked NOW for your location showing map with azimuth and elevation plus other details from your city location.







IsCatalogInMostPopularTable: catalog: 53549, numindb: 2
Update: records affected: 1



GetName: 53549 STARLINK-4516

Hit Count: updated at: Thu, 08 Dec 2022 20:17:46 GMT